User: anonymous   Login
Location: Oshawa
(43.9000°N, 78.8670°W)
Time: 07:25:09
(UTC-05:00)
Language:

Cosmos 1408 Rocket - Orbit

View from above orbital plane
View from above orbital plane
View from above satellite
View from above satellite

Ground track
Ground track

The orbit data is extracted from the following two-line orbital elements,

1 13553U 82092B   15058.74934812  .00000379  00000-0  42795-4 0  9995
2 13553 082.5691 296.9616 0020312 304.2620 118.8906 14.83802006752395
Epoch (UTC): 27 February 2015 17:59:03
Eccentricity: 0.0020312
inclination: 82.5691°
perigee height: 603 km
apogee height: 631 km
right ascension of ascending node: 296.9616°
argument of perigee: 304.2620°
revolutions per day: 14.83802006
mean anomaly at epoch: 118.8906°
orbit number at epoch: 75239

The dashed part of the orbit path shows where the satellite is in the earth's shadow,  

DLR